星链-34197 (STARLINK-34197)

导读

STARLINK-34197是美国太空探索技术公司(SpaceX)星链星座的卫星,于2025年5月28日发射,为星链互联网星座扩容。星链项目旨在通过近地轨道卫星星座,为全球提供高速低延迟宽带互联网服务,该卫星加入后进一步完善了星座的全球覆盖能力与服务容量。

Basic Information
目录编号:
64184
目录名称:
STARLINK-34197
国际标识:
2025-113Q
轨道中心:
EARTH
卫星名称:
星链-34197
卫星全名:
星链-34197 (STARLINK-34197)
卫星状态:
在轨 (已飞行464 天)
发射日期:
2025-05-28 UTC
国别 :
美国 (US)
星等 :
--
Orbit Information
数据来源 国际轨道数据 AOE轨道数据
星历时间 2026-09-04T03:07:36+0800
9小时前
查看轨道信息
2026-08-30T08:00:00+0800
5天前
查看轨道信息
半长轴 6843.317km 6843.517km
偏心率 0.0001101 0.0001204
轨道倾角 53.163° 53.161°
近地点辐角 83.920° 69.685°
升交点赤经 343.877° 6.274°
平近点角 276.193° 72.622°
近地点 464.426km 464.556km
远地点 465.934km 466.204km
周期 93.899分钟 93.903分钟
每日圈数 15.335673 15.334999
Detailed Information
固有亮度:
5
最大亮度:
2.5
卫星平台:
Starlink V1.0
覆盖范围:
全球
运营商:
太空探索技术公司
运营商所在国:
美国
制造商(研发单位):
太空探索技术公司
制造商所在国:
美国
使用方式:
暂无
Satellite Introduction
Starlink 计划是 SpaceX 推出的全球卫星互联网项目,通过发射低轨道卫星,为全球尤其是偏远地区提供高速、低延迟的互联网服务。自 2019 年起,Starlink 已部署数千颗卫星,旨在缩小全球数字鸿沟,推动互联网普及。该项目还为军事、航空等行业提供通信支持,带来广泛经济效益。
2D Orbit Map
3D Orbit Map
Orbit Altitude Analysis Chart
Orbit Inclination Analysis Chart
Orbit Comprehensive Analysis Chart
View Comprehensive Chart
Conjunction Data List
Event ID Objects TCA Miss Dist (km) Collision Risk Probability Collision Risk Index (CRI) Action
CDM_260904-163600-874406-418421
2026-09-04T
16:36:38+0000
0.806 km
远距离
4.349171E-5 中风险 0.68
CDM_260830-020606-418406-942121
2026-08-30T
02:06:48+0000
1.916 km
极远距离
2.758114E-6 低风险 0.44
CDM_260905-051706-418406-524421
2026-09-05T
05:17:28+0000
2.022 km
极远距离
1.905176E-6 低风险 0.41
CDM_260905-034006-418406-948121
2026-09-05T
03:40:01+0000
2.188 km
极远距离
1.760044E-6 低风险 0.4
CDM_260831-213006-418406-549821
2026-08-31T
21:30:50+0000
2.401 km
极远距离
1.688852E-6 低风险 0.4
CDM_260830-155106-418406-802621
2026-08-30T
15:51:55+0000
2.628 km
极远距离
1.608463E-6 低风险 0.39
CDM_260830-060406-418406-519021
2026-08-30T
06:04:48+0000
2.476 km
极远距离
1.602322E-6 低风险 0.39
CDM_260901-201406-092306-418421
2026-09-01T
20:14:43+0000
2.527 km
极远距离
1.534261E-6 低风险 0.39
CDM_260830-034306-418406-519021
2026-08-30T
03:43:48+0000
2.542 km
极远距离
1.52522E-6 低风险 0.39
CDM_260901-023305-631806-418421
2026-09-01T
02:33:51+0000
2.742 km
极远距离
1.388643E-6 低风险 0.38